Minneapolis Flying Cloud, MN

1:59 PM CDT on August 21, 2017 (GMT -0500)
Flying Cloud

Weather History for KFCM - April, 2013

Change the Weather History Date:

Thursday, April 4, 2013

  Actual Average Record
Temperature  
Mean Temperature 43 °F -  
Max Temperature 52 °F 48 °F 75 °F (2005)
Min Temperature 33 °F 31 °F 16 °F (2007)
Degree Days  
Heating Degree Days 22    
Moisture  
Dew Point 26 °F    
Average Humidity 54    
Maximum Humidity 73    
Minimum Humidity 36    
Precipitation  
Precipitation 0.00 in - - ()
Sea Level Pressure  
Sea Level Pressure 30.08 in    
Wind  
Wind Speed 13 mph (WNW)    
Max Wind Speed 20 mph    
Max Gust Speed 29 mph    
Visibility 10 miles    
Events      
Averages and records for this station are not official NWS values.
T = Trace of Precipitation, MM = Missing Value Source: NWS Daily Summary

Daily Weather History Graph

Daily Weather History Graph

Search for Another Location

Airport or City:

Trip Planner

Search our weather history database for the weather conditions in past years. The results will help you decide how hot, cold, wet, or windy it might be!

Date:

Astronomy

Apr. 04, 2013 Rise Set
Actual Time 6:48 AM CDT 7:45 PM CDT
Civil Twilight 6:18 AM CDT 8:15 PM CDT
Nautical Twilight 5:43 AM CDT 8:51 PM CDT
Astronomical Twilight 5:06 AM CDT 9:28 PM CDT
Moon 3:30 AM CDT (4/4) 1:51 PM CDT (4/4)
Length of Visible Light 13h 56m
Length of Day
12h 57m
Waning Crescent, 33% of the Moon is Illuminated
Apr 4
Waning Crescent
Apr 10
New
Apr 18
First Quarter
Apr 25
Full
May 2
Last Quarter

Hourly Weather History & Observations

Time (CDT) Temp. Windchill Dew Point Humidity Pressure Visibility Wind Dir Wind Speed Gust Speed Precip Events Conditions
12:53 AM 42.1 °F 33.3 °F 27.0 °F 55% 30.06 in 10.0 mi SSW 19.6 mph 28.8 mph N/A   Mostly Cloudy
1:53 AM 42.1 °F 34.5 °F 27.0 °F 55% 30.05 in 10.0 mi SSW 15.0 mph 23.0 mph N/A   Overcast
2:53 AM 42.1 °F 34.2 °F 28.0 °F 58% 30.05 in 10.0 mi SSW 16.1 mph 23.0 mph N/A   Overcast
3:53 AM 43.0 °F 36.4 °F 28.0 °F 56% 30.03 in 10.0 mi SW 12.7 mph 20.7 mph N/A   Mostly Cloudy
4:53 AM 42.1 °F 34.2 °F 28.0 °F 58% 30.02 in 10.0 mi SW 16.1 mph 20.7 mph N/A   Overcast
5:53 AM 39.9 °F 33.9 °F 28.9 °F 65% 30.01 in 10.0 mi WSW 9.2 mph - 0.00 in   Mostly Cloudy
6:53 AM 39.0 °F 34.0 °F 28.9 °F 67% 30.03 in 10.0 mi WSW 6.9 mph - N/A   Overcast
7:53 AM 39.9 °F 35.1 °F 30.9 °F 70% 30.05 in 8.0 mi WNW 6.9 mph - N/A   Overcast
8:53 AM 39.9 °F 32.9 °F 32.0 °F 73% 30.06 in 7.0 mi NW 11.5 mph - N/A   Overcast
9:53 AM 42.1 °F 34.9 °F 30.9 °F 65% 30.06 in 9.0 mi NW 13.8 mph - N/A   Clear
10:53 AM 44.1 °F 37.7 °F 30.9 °F 60% 30.07 in 10.0 mi NW 12.7 mph - N/A   Clear
11:53 AM 48.0 °F - 30.9 °F 52% 30.08 in 10.0 mi NW 12.7 mph - N/A   Clear
12:53 PM 48.0 °F - 28.0 °F 46% 30.09 in 10.0 mi NNW 11.5 mph 18.4 mph N/A   Clear
1:53 PM 51.1 °F - 25.0 °F 36% 30.09 in 10.0 mi WNW 16.1 mph 20.7 mph N/A   Clear
2:53 PM 50.0 °F - 24.1 °F 36% 30.09 in 10.0 mi NW 13.8 mph - N/A   Clear
3:53 PM 50.0 °F - 25.0 °F 38% 30.08 in 10.0 mi NNW 13.8 mph 23.0 mph N/A   Clear
4:53 PM 48.9 °F - 24.1 °F 38% 30.08 in 10.0 mi NNW 12.7 mph 24.2 mph N/A   Clear
5:53 PM 46.9 °F - 23.0 °F 39% 30.09 in 10.0 mi NW 13.8 mph 20.7 mph N/A   Clear
6:53 PM 45.0 °F 38.5 °F 23.0 °F 42% 30.11 in 10.0 mi NW 13.8 mph - N/A   Clear
7:53 PM 41.0 °F 35.8 °F 21.9 °F 47% 30.12 in 10.0 mi NNW 8.1 mph - N/A   Clear
8:53 PM 39.0 °F 34.0 °F 21.9 °F 50% 30.13 in 10.0 mi NNW 6.9 mph - N/A   Clear
9:53 PM 36.0 °F 30.3 °F 23.0 °F 59% 30.16 in 10.0 mi NNW 6.9 mph - N/A   Clear
10:53 PM 35.1 °F 30.1 °F 21.9 °F 59% 30.17 in 10.0 mi NNW 5.8 mph - N/A   Clear
11:53 PM 33.1 °F 26.9 °F 21.9 °F 64% 30.18 in 10.0 mi NNW 6.9 mph - N/A   Clear